sat.trackr.live / text

‹ back to catalog

ONEWEB-0610

NORAD 54673 · 2022-166AH

PAYLOAD ACTIVE UNKNOWN

§ Identity

Operator
Country
UK
Launch date
2022-12-08
Launch site
AFETR
Launch vehicle
Mass (kg)
RCS (m²)

Purposes: comms

External: N2YO · Heavens-Above · Gunter

§ Orbital elements

Epoch: 2026-05-25T00:36:26.826336Z

Period
108.94 min
Inclination
87.9254°
Eccentricity
0.0002549
Mean motion
13.21826948 rev/d
Perigee alt
1,175.8 km
Apogee alt
1,179.7 km
Semi-major
7,555.9 km
B*
1.1336e-4
RAAN
248.5898°
Arg perigee
92.4592°
Mean anomaly
267.6834°
Rev number
16,839

§ Raw data

ONEWEB-06101 54673U 22166AH  26145.02531049  .00000060  00000+0  11336-3 0  99962 54673  87.9254 248.5898 0002549  92.4592 267.6834 13.21826948168394

JSON: /api/v1/satellites/54673 · /tle

For live sub-satellite position, see the globe view (requires WebGL).

§ Visibility from observer

Set your observer location to see the next 7 days of passes ≥ 10°. The values pass through the URL so the page stays shareable.

No JS? Fill the form by hand. The geolocation button needs JavaScript.